Dewpoint
17 18 19 18 18 20 21 21 19 17 19 22 23 24 26 27 27 28 28 29 30 31 32 32 31 32 32
20 20 18 19 21 20 17 15 17 17 20 22 24 24 25 26 27 27 28 28 29 30 32 31 31 31 32
21 21 21 24 21 18 18 17 17 18 20 21 22 24 25 25 25 26 26 26 27 27 27 28 29 30 31
21 24 26 20 20 17 17 18 19 20 21 21 22 22 22 23 24 25 25 26 26 27 27 27 28 29 30
27 23 21 17 15 17 19 20 22 20 21 20 20 22 23 23 22 22 23 24 25 26 27 29 30 30 29
24 20 15 15 18 20 23 22 20 20 19 21 21 21 21 22 21 22 23 25 26 27 28 29 29 29 30
18 16 17 19 24 26 23 22 22 22 21 20 20 19 20 19 21 23 24 26 27 27 28 29 30 30 30
17 19 23 26 24 22 24 23 23 20 19 19 20 20 21 22 22 24 25 26 26 26 28 30 33 33 33
22 25 22 20 21 23 23 21 19 19 19 18 19 21 22 22 23 22 23 24 26 27 28 29 31 34 34
20 16 17 18 20 20 23 21 20 18 17 20 21 20 19 19 22 24 25 25 26 27 28 29 30 33 33
15 17 18 19 20 21 22 23 21 20 20 22 21 20 21 21 22 24 25 27 28 29 28 29 29 32 33
17 19 20 21 22 22 22 23 23 22 23 23 20 21 21 20 20 23 26 28 30 30 31 33 34 34 34
19 20 21 22 23 22 23 23 23 23 24 24 24 24 24 22 22 25 26 28 31 31 32 33 32 33 31
20 20 21 21 21 22 21 21 21 22 23 25 26 26 25 25 26 25 27 28 31 32 32 32 33 34 32
20 20 19 20 20 21 21 22 20 20 21 24 26 27 28 27 26 27 28 30 31 31 31 31 33 33 31
19 19 19 19 20 21 21 21 20 20 21 23 26 25 25 26 28 28 29 29 30 31 32 30 30 32 30
19 19 20 21 19 20 20 21 20 21 22 24 25 26 23 22 25 28 29 29 30 30 31 30 30 32 32
Wind_Speed
25 24 26 26 24 22 24 27 25 31 33 33 35 36 36 37 38 38 38 38 38 39 40 41 41 42 42
28 25 27 25 24 26 23 24 25 27 31 33 36 36 36 36 37 38 38 37 39 38 40 41 42 42 41
29 25 25 21 24 26 24 23 22 28 30 31 34 35 35 36 37 38 39 39 39 39 39 39 40 41 42
24 28 22 24 24 22 23 22 23 24 27 28 31 32 33 37 38 38 38 37 37 38 38 39 39 39 41
24 24 27 24 25 23 24 26 25 24 25 21 22 24 26 30 31 34 33 34 36 37 37 38 38 39 40
24 25 29 26 25 24 26 26 28 19 22 31 22 27 24 23 31 35 37 37 36 36 37 37 38 39 40
26 26 27 26 26 27 27 26 27 26 24 32 24 27 23 24 33 36 37 37 35 35 35 36 37 38 39
24 26 24 24 24 26 26 29 26 23 22 29 26 27 24 24 36 36 33 31 31 33 35 36 37 38 38
27 31 31 31 25 20 21 22 27 24 23 20 20 28 28 29 22 23 27 36 34 33 34 34 35 36 33
24 23 21 22 22 18 17 21 23 24 14 17 23 19 14 17 18 25 21 27 33 33 33 33 33 25 23
21 20 20 19 18 17 16 18 23 23 29 21 19 23 16 22 25 23 24 22 25 25 28 30 31 30 23
19 20 20 20 19 19 22 22 21 26 29 25 18 23 25 28 31 22 29 26 23 25 23 25 31 34 34
19 20 19 21 22 20 20 20 23 24 23 24 23 25 23 26 30 31 29 22 24 22 27 23 23 20 21
18 20 20 20 20 18 19 21 21 24 20 19 19 22 25 24 24 29 25 21 28 25 26 25 19 16 12
18 20 20 19 20 19 18 20 20 21 24 21 19 20 21 26 26 23 24 24 23 26 26 22 18 11 8
19 18 20 20 21 21 19 18 19 21 21 22 23 24 20 18 18 18 19 20 24 25 23 20 14 7 6
18 19 19 20 22 20 20 19 20 19 20 20 21 19 21 24 17 12 16 22 21 21 21 21 16 14 6
Wind_Direction
302 307 301 298 302 305 303 293 288 297 297 298 295 293 292 292 290 287 285 285 282 279 279 278 274 270 266
299 300 302 302 305 295 300 302 297 295 297 297 295 294 294 291 289 286 284 281 280 280 278 275 272 271 269
295 299 299 305 303 310 299 299 301 301 299 297 294 294 293 290 288 287 285 285 284 282 279 276 273 272 271
293 297 299 312 302 304 308 305 302 302 298 292 292 291 290 290 289 286 285 283 281 280 278 275 273 269 268
294 308 305 305 311 313 303 305 302 303 300 294 305 295 288 288 285 284 284 283 281 279 277 274 270 268 266
303 296 302 308 307 306 303 309 305 308 310 297 298 293 288 287 287 290 289 287 284 281 277 274 271 268 264
297 298 299 303 304 301 307 299 297 297 298 293 297 292 293 291 292 292 290 289 287 284 280 276 272 269 264
297 296 296 293 297 301 301 298 293 294 298 292 301 294 298 296 295 294 291 289 287 285 283 281 278 273 266
298 293 297 300 298 299 295 302 298 300 304 288 298 304 302 294 288 291 295 298 293 289 289 285 279 273 269
302 306 300 300 299 293 294 293 295 306 302 310 306 312 309 293 298 296 291 294 296 295 296 294 286 276 264
308 306 306 303 305 304 295 287 288 282 285 306 300 299 284 297 302 298 296 296 301 297 292 289 286 280 267
306 301 303 304 301 300 294 285 276 273 284 288 278 286 289 293 295 298 306 303 299 297 292 284 280 276 276
301 299 300 299 298 296 295 291 287 282 280 278 274 280 279 282 286 294 304 306 302 304 308 299 293 281 275
302 300 300 303 302 302 300 301 298 300 298 286 278 283 285 283 288 292 297 300 308 312 311 305 300 287 259
305 304 304 305 303 305 300 300 298 302 307 309 304 292 286 282 290 287 295 304 313 316 317 315 314 305 272
303 301 302 303 304 306 304 300 301 305 308 311 315 319 314 306 263 285 295 308 318 321 326 328 322 335 291
303 301 300 302 306 303 305 304 307 307 308 314 314 316 318 316 306 287 295 317 320 326 334 334 320 322 311